Previsão horária em Aliaga

Hoje, 18 Janeiro, Segunda-feira

Tempo Temperatura Precipitação Vento Pressão Humidade
00:00 -1°C° 0 mm 4 m/s 661 mmHg 91%
01:00 -1°C° 0 mm 4 m/s 661 mmHg 92%
02:00 -1°C° 0 mm 3 m/s 660 mmHg 92%
03:00 -1°C° 0 mm 3 m/s 660 mmHg 92%
04:00 -1°C° 0 mm 3 m/s 660 mmHg 92%
05:00 -1°C° 0 mm 2 m/s 660 mmHg 92%
06:00 -2°C° 0 mm 2 m/s 660 mmHg 92%
07:00 -1°C° 0 mm 2 m/s 660 mmHg 91%
08:00 +1°C° 0 mm 2 m/s 661 mmHg 91%
09:00 +1°C° 0 mm 2 m/s 661 mmHg 91%
10:00 +2°C° 0 mm 2 m/s 661 mmHg 88%
11:00 +3°C° 0 mm 2 m/s 661 mmHg 86%
12:00 +4°C° 0 mm 2 m/s 662 mmHg 84%
13:00 +4°C° 0 mm 2 m/s 661 mmHg 83%
14:00 +4°C° 0 mm 2 m/s 661 mmHg 82%
15:00 +5°C° 0 mm 1 m/s 660 mmHg 81%
16:00 +4°C° 0 mm 1 m/s 660 mmHg 82%
17:00 +2°C° 0 mm 1 m/s 660 mmHg 82%
18:00 +1°C° 0 mm 1 m/s 660 mmHg 82%
19:00 +1°C° 0 mm 1 m/s 660 mmHg 82%
20:00 +1°C° 0 mm 1 m/s 660 mmHg 81%
21:00 0°C° 0 mm 1 m/s 660 mmHg 81%
22:00 0°C° 0 mm 1 m/s 660 mmHg 79%
23:00 0°C° 0 mm 1 m/s 660 mmHg 78%

Amanhã, 19 Janeiro, Terça-feira

Tempo Temperatura Precipitação Vento Pressão Humidade
00:00 0°C° 0 mm 1 m/s 661 mmHg 76%
01:00 0°C° 0 mm 1 m/s 660 mmHg 75%
02:00 -2°C° 0 mm 2 m/s 660 mmHg 74%
03:00 -2°C° 0 mm 2 m/s 659 mmHg 73%
04:00 -2°C° 0 mm 2 m/s 659 mmHg 72%
05:00 -2°C° 0 mm 2 m/s 659 mmHg 71%
06:00 -2°C° 0 mm 2 m/s 659 mmHg 69%
07:00 -1°C° 0 mm 2 m/s 659 mmHg 66%
08:00 +2°C° 0 mm 2 m/s 660 mmHg 63%
09:00 +3°C° 0 mm 2 m/s 660 mmHg 60%
10:00 +4°C° 0 mm 2 m/s 660 mmHg 59%
11:00 +5°C° 0 mm 2 m/s 660 mmHg 57%
12:00 +6°C° 0 mm 2 m/s 660 mmHg 56%
13:00 +6°C° 0 mm 2 m/s 659 mmHg 57%
14:00 +6°C° 0 mm 2 m/s 659 mmHg 58%
15:00 +6°C° 0 mm 2 m/s 658 mmHg 59%
16:00 +4°C° 0 mm 3 m/s 658 mmHg 62%
17:00 +2°C° 0 mm 3 m/s 657 mmHg 66%
18:00 0°C° 0 mm 3 m/s 657 mmHg 69%
19:00 0°C° 0 mm 3 m/s 657 mmHg 70%
20:00 -1°C° 0 mm 4 m/s 657 mmHg 70%
21:00 -1°C° 0 mm 4 m/s 656 mmHg 70%
22:00 -1°C° 0 mm 4 m/s 656 mmHg 71%
23:00 -1°C° 0 mm 4 m/s 656 mmHg 72%

Depois de amanhã, 20 Janeiro, Quarta-feira

Tempo Temperatura Precipitação Vento Pressão Humidade
00:00 -2°C° 0 mm 4 m/s 655 mmHg 72%
01:00 -2°C° 0 mm 4 m/s 655 mmHg 73%
02:00 -2°C° 0 mm 5 m/s 654 mmHg 73%
03:00 -2°C° 0 mm 5 m/s 654 mmHg 74%
04:00 -2°C° 0 mm 5 m/s 653 mmHg 76%
05:00 -3°C° 0 mm 6 m/s 653 mmHg 78%
06:00 -3°C° 0 mm 6 m/s 653 mmHg 80%
07:00 -2°C° 0 mm 6 m/s 653 mmHg 81%
08:00 -2°C° 0 mm 6 m/s 653 mmHg 82%
09:00 -1°C° 0 mm 6 m/s 653 mmHg 83%
10:00 -1°C° 0 mm 7 m/s 652 mmHg 83%
11:00 0°C° 0 mm 8 m/s 652 mmHg 84%
12:00 +1°C° 0 mm 10 m/s 652 mmHg 84%
13:00 0°C° 0 mm 10 m/s 651 mmHg 86%
14:00 0°C° 0 mm 10 m/s 650 mmHg 87%
15:00 0°C° 0 mm 10 m/s 650 mmHg 89%
16:00 0°C° 0 mm 9 m/s 649 mmHg 89%
17:00 0°C° 0 mm 9 m/s 649 mmHg 89%
18:00 0°C° 0 mm 9 m/s 649 mmHg 88%
19:00 0°C° 0 mm 9 m/s 649 mmHg 89%
20:00 0°C° 0 mm 8 m/s 649 mmHg 89%
21:00 0°C° 0 mm 8 m/s 650 mmHg 90%
22:00 0°C° 0 mm 8 m/s 650 mmHg 89%
23:00 0°C° 0 mm 8 m/s 650 mmHg 89%

21 Janeiro, Quinta-feira

Tempo Temperatura Precipitação Vento Pressão Humidade
00:00 0°C° 0 mm 7 m/s 650 mmHg 89%
01:00 0°C° 0 mm 7 m/s 650 mmHg 90%
02:00 0°C° 0 mm 7 m/s 650 mmHg 90%
03:00 0°C° 0 mm 7 m/s 650 mmHg 91%
04:00 0°C° 0 mm 7 m/s 650 mmHg 90%
05:00 0°C° 0 mm 7 m/s 650 mmHg 90%
06:00 0°C° 0 mm 7 m/s 651 mmHg 90%
07:00 0°C° 0 mm 7 m/s 651 mmHg 89%
08:00 0°C° 0 mm 7 m/s 651 mmHg 89%
09:00 +2°C° 0 mm 7 m/s 652 mmHg 88%
10:00 +2°C° 0 mm 8 m/s 652 mmHg 85%
11:00 +2°C° 0 mm 9 m/s 652 mmHg 81%
12:00 +3°C° 0 mm 10 m/s 652 mmHg 78%
13:00 +3°C° 0 mm 11 m/s 652 mmHg 79%
14:00 +3°C° 0 mm 11 m/s 651 mmHg 80%
15:00 +2°C° 0 mm 11 m/s 651 mmHg 80%
16:00 +2°C° 0 mm 11 m/s 651 mmHg 81%
17:00 +2°C° 0 mm 11 m/s 650 mmHg 81%
18:00 +2°C° 0 mm 11 m/s 650 mmHg 82%
19:00 +2°C° 0 mm 12 m/s 650 mmHg 83%
20:00 +2°C° 0 mm 12 m/s 650 mmHg 84%
21:00 +1°C° 0 mm 13 m/s 650 mmHg 85%
22:00 +2°C° 0.1 mm 12 m/s 650 mmHg 86%
23:00 +2°C° 0.1 mm 12 m/s 650 mmHg 87%

22 Janeiro, Sexta-feira

Tempo Temperatura Precipitação Vento Pressão Humidade
00:00 +2°C° 0.1 mm 11 m/s 650 mmHg 88%
01:00 +2°C° 0 mm 10 m/s 650 mmHg 88%
02:00 +2°C° 0 mm 10 m/s 650 mmHg 88%
03:00 +1°C° 0 mm 9 m/s 650 mmHg 88%
04:00 +1°C° 0.2 mm 8 m/s 649 mmHg 90%
05:00 +2°C° 0.2 mm 7 m/s 649 mmHg 91%
06:00 +2°C° 0.2 mm 6 m/s 649 mmHg 93%
07:00 +2°C° 0.3 mm 6 m/s 649 mmHg 91%
08:00 +3°C° 0.3 mm 7 m/s 649 mmHg 89%
09:00 +3°C° 0.3 mm 7 m/s 649 mmHg 86%
10:00 +2°C° 0.3 mm 9 m/s 649 mmHg 83%
11:00 +2°C° 0.3 mm 11 m/s 649 mmHg 79%
12:00 +1°C° 0.3 mm 13 m/s 649 mmHg 76%
13:00 +1°C° 0.1 mm 14 m/s 648 mmHg 73%
14:00 +1°C° 0.1 mm 14 m/s 648 mmHg 70%
15:00 0°C° 0.1 mm 15 m/s 648 mmHg 67%
16:00 -1°C° 0 mm 14 m/s 648 mmHg 70%
17:00 -1°C° 0 mm 13 m/s 648 mmHg 73%
18:00 -2°C° 0 mm 11 m/s 649 mmHg 76%
19:00 -2°C° 0 mm 12 m/s 649 mmHg 76%
20:00 -3°C° 0 mm 12 m/s 649 mmHg 77%
21:00 -3°C° 0 mm 12 m/s 650 mmHg 78%
22:00 -3°C° 0 mm 11 m/s 650 mmHg 79%
23:00 -4°C° 0 mm 11 m/s 650 mmHg 81%

23 Janeiro, Sábado

Tempo Temperatura Precipitação Vento Pressão Humidade
00:00 -4°C° 0 mm 10 m/s 651 mmHg 82%
01:00 -4°C° 0 mm 10 m/s 651 mmHg 81%
02:00 -6°C° 0 mm 11 m/s 651 mmHg 81%
03:00 -6°C° 0 mm 11 m/s 652 mmHg 80%
04:00 -6°C° 0 mm 11 m/s 652 mmHg 80%
05:00 -6°C° 0 mm 11 m/s 652 mmHg 79%
06:00 -6°C° 0 mm 11 m/s 652 mmHg 78%
07:00 -6°C° 0 mm 11 m/s 653 mmHg 77%
08:00 -5°C° 0 mm 12 m/s 654 mmHg 76%
09:00 -3°C° 0 mm 12 m/s 654 mmHg 76%
10:00 -2°C° 0 mm 12 m/s 654 mmHg 72%
11:00 -1°C° 0 mm 12 m/s 655 mmHg 68%
12:00 0°C° 0 mm 12 m/s 655 mmHg 64%
13:00 0°C° 0 mm 12 m/s 655 mmHg 64%
14:00 +1°C° 0 mm 11 m/s 654 mmHg 65%
15:00 +1°C° 0 mm 11 m/s 654 mmHg 65%
16:00 0°C° 0 mm 10 m/s 654 mmHg 70%
17:00 0°C° 0 mm 8 m/s 654 mmHg 75%
18:00 -1°C° 0 mm 7 m/s 654 mmHg 80%
19:00 -1°C° 0 mm 7 m/s 654 mmHg 82%
20:00 -1°C° 0 mm 8 m/s 654 mmHg 83%
21:00 0°C° 0 mm 9 m/s 654 mmHg 85%
22:00 0°C° 0 mm 9 m/s 654 mmHg 83%
23:00 0°C° 0 mm 10 m/s 654 mmHg 82%
Mostrar mais

Necessitamos do seu Consentimento

A Meteoprog e os seus Fornecedores de Serviços podem armazenar e aceder a dados pessoais como cookies, identificadores do dispositivo ou outras tecnologias semelhantes existentes no seu dispositivo e processar estes dados para personalizar conteúdos e anúncios, assim como funcionalidades nas redes sociais e análise de tráfego.

  • Armazenar e/ou aceder a informações no seu dispositivo

    Os cookies, identificadores do dispositivo ou outras informações podem ser armazenados ou acedidos no seu dispositivo, para os fins acima indicados.

  • Anúncios e conteúdos personalizados, medição de anúncios e conteúdos, dados sobre o público-alvo e desenvolvimento de produtos

    Os anúncios e os conteúdos podem ser personalizados com base num perfil. Podem ser adicionados dados adicionais para uma maior personalização dos anúncios e dos conteúdos. A eficácia dos anúncios e dos conteúdos pode ser medida. Podem ser obtidas informações sobre o público que visualizou os anúncios e os conteúdos. Estes dados podem ser usados para desenvolver ou melhorar sistemas, softwares ou a experiência do utilizador.

Ao clicar em "Eu concordo”, permitirá o uso de cookies, identificadores do dispositivo e web beacons mencionados ou outras tecnologias semelhantes. As configurações do navegador do seu dispositivo podem ser alteradas.

Para certos fins, podem ser invocados interesses legítimos ao invés de consentimento. Pode ler mais informação sobre este assunto na nossa Política de Privacidade e Cookies.